Home > Weather > Grand Rapids > Past weeks

Flag for USA Past Weather in Grand Rapids, Michigan, USA — Yesterday and Last 2 Weeks

Now
79 °F

Passing clouds.


Feels Like: 80 °F
Forecast: 66 / 90 °F
Wind: 8 mph from West

Location: Kent County International Airport

Current Time: Jul 26, 2016 at 9:58:53 PM

Latest Report: Jul 26, 2016 at 8:53 PM


Visibility: 10 mi

Pressure: 30.00 "Hg

Humidity: 50%

Dew Point: 59 °F

Location of Grand RapidsLocation

Past Weather in Grand Rapids — Graph

°F

Grand Rapids Temperature Yesterday

Maximum temperature yesterday: 86 °F (at 2:53 PM)
Minimum temperature yesterday: 72 °F (at 11:53 PM)
Average temperature yesterday: 79 °F

High & Low Weather Summary for the Past Weeks

 TemperatureHumidityPressure
High92 °F (Jul 23, 4:53 PM)94% (Jul 23, 6:53 AM)30.25 "Hg (Jul 23, 6:53 AM)
Low57 °F (Jul 17, 5:53 AM)13% (Jul 18, 4:53 PM)29.76 "Hg (Jul 13, 6:53 PM)
Average77 °F68%29.99 "Hg
* Reported Jul 11 7:53 PM — Jul 26 7:53 PM, Grand Rapids, Weather by CustomWeather, © 2016

Note: Actual official high and low records may vary slightly from our data, if they occured in-between our weather recording intervals... More about our weather records

Advertising

Grand Rapids Weather History for the Previous 24 Hours

Scroll right to see more
 ConditionsComfort  
Time TempWeatherWind HumidityBarometerVisibility
7:53 PM
Tue, Jul 26
82 °FPassing clouds.13 mph49%29.99 "Hg10 mi
6:53 PM84 °FPassing clouds.8 mph46%29.99 "Hg10 mi
5:53 PM85 °FScattered clouds.10 mph45%30.00 "Hg10 mi
4:53 PM85 °FPartly sunny.9 mph46%30.00 "Hg10 mi
3:53 PM83 °FPartly sunny.10 mph50%30.01 "Hg10 mi
2:53 PM85 °FPartly sunny.No wind45%30.02 "Hg10 mi
1:53 PM84 °FScattered clouds.No wind46%30.02 "Hg10 mi
12:53 PM81 °FScattered clouds.3 mph49%30.05 "Hg10 mi
11:53 AM81 °FScattered clouds.5 mph53%30.06 "Hg10 mi
10:53 AM82 °FPassing clouds.6 mph58%30.06 "Hg10 mi
9:53 AM78 °FPassing clouds.6 mph64%30.06 "Hg10 mi
8:53 AM75 °FPassing clouds.5 mph74%30.06 "Hg10 mi
7:53 AM70 °FPassing clouds.5 mph87%30.06 "Hg7 mi
6:53 AM64 °FFog.No wind94%30.06 "Hg5 mi
5:53 AM64 °FPassing clouds.No wind90%30.04 "Hg10 mi
4:53 AM63 °FClear.No wind93%30.03 "Hg10 mi
3:53 AM67 °FClear.No wind87%30.02 "Hg10 mi
2:53 AM67 °FClear.3 mph87%30.02 "Hg10 mi
1:53 AM69 °FClear.6 mph79%30.01 "Hg10 mi
12:53 AM69 °FClear.6 mph79%30.01 "Hg10 mi
11:53 PM
Mon, Jul 25
72 °FClear.7 mph73%30.00 "Hg10 mi
10:53 PM74 °FClear.7 mph67%30.00 "Hg10 mi
9:53 PM76 °FPassing clouds.8 mph62%29.99 "Hg10 mi
Weather by CustomWeather, © 2016

See weather overviewHow to use our weather pages